Location: River House Observatory
(37.8577°N, 76.3548°W)
Time: 02:39:59
(UTC-05:00)

NOSS 3-1 (C) - Visible Passes

Search period start: 28 February 2017 00:00
Search period end: 10 March 2017 00:00
Orbit: 833 x 1376 km, 63.4° (Epoch: 20 February)

Date Brightness Start Highest point End Pass type
(mag) Time Alt. Az. Time Alt. Az. Time Alt. Az.
28 Feb 5.1 18:19:00 10° NNW 18:24:51 24° NE 18:31:10 10° E visible
28 Feb 4.0 20:09:00 10° NNW 20:16:45 88° ENE 20:19:19 50° SSE visible
28 Feb 6.0 22:01:45 10° WNW 22:06:48 19° WSW 22:06:48 19° WSW visible
01 Mar 4.1 19:23:47 10° NNW 19:31:21 61° NE 19:36:32 25° SE visible
01 Mar 5.4 21:15:19 10° NW 21:22:03 32° WSW 21:24:01 29° SW visible
02 Mar 4.5 18:38:43 10° NNW 18:45:50 41° NE 18:53:35 10° ESE visible
02 Mar 4.8 20:29:30 10° NW 20:36:57 49° WSW 20:41:28 26° S visible
03 Mar 4.2 19:44:00 10° NW 19:51:45 75° WSW 19:59:09 14° SSE visible
03 Mar 6.4 21:37:57 10° WNW 21:41:47 14° WSW 21:45:46 10° SW visible
04 Mar 4.1 18:58:42 10° NNW 19:06:25 75° ENE 19:14:50 10° SE visible
04 Mar 5.9 20:50:49 10° WNW 20:56:53 24° WSW 21:03:16 10° SSW visible
05 Mar 4.3 18:13:34 10° NNW 18:20:57 51° NE 18:29:02 10° SE visible
05 Mar 5.3 20:04:44 10° NW 20:11:51 39° WSW 20:19:29 10° S visible
06 Mar 4.6 19:19:04 10° NW 19:26:42 60° WSW 19:34:58 10° SSE visible
07 Mar 4.2 18:33:41 10° NNW 18:41:26 89° WSW 18:49:54 10° SSE visible
07 Mar 6.4 20:26:35 10° WNW 20:31:41 18° WSW 20:36:59 10° SW visible
08 Mar 5.8 19:40:04 10° NW 19:46:44 30° WSW 19:53:46 10° SSW visible
09 Mar 5.2 18:54:13 10° NW 19:01:38 48° WSW 19:09:36 10° S visible
